Weather History for KDDC - May, 2012

Change the Weather History Date:

Wednesday, May 23, 2012

  Actual Average Record
Temperature  
Mean Temperature 83 °F -  
Max Temperature 100 °F 78 °F 100 °F (2012)
Min Temperature 66 °F 54 °F 33 °F (1893)
Cooling Degree Days 18    
Growing Degree Days 33 (Base 50)    
Moisture  
Dew Point 52 °F    
Average Humidity 38    
Maximum Humidity 63    
Minimum Humidity 7    
Precipitation  
Precipitation 0.00 in - - ()
Sea Level Pressure  
Sea Level Pressure 29.35 in    
Wind  
Wind Speed 21 mph (South)    
Max Wind Speed 26 mph    
Max Gust Speed 40 mph    
Visibility 9 miles    
Events      
Averages and records for this station are not official NWS values.
T = Trace of Precipitation, MM = Missing Value Source: NWS Daily Summary

Daily Weather History Graph

Daily Weather History Graph

Search for Another Location

Airport or City:

Trip Planner

Search our weather history database for the weather conditions in past years. The results will help you decide how hot, cold, wet, or windy it might be!

Date:

Astronomy

May. 23, 2012 Rise Set
Actual Time 6:23 AM CDT 8:49 PM CDT
Civil Twilight 5:53 AM CDT 9:20 PM CDT
Nautical Twilight 5:16 AM CDT 9:57 PM CDT
Astronomical Twilight 4:35 AM CDT 10:38 PM CDT
Moon 8:28 AM CDT (5/23) 11:12 PM CDT (5/23)
Length of Visible Light 15h 26m
Length of Day
14h 26m
Waxing Crescent, 7% of the Moon is Illuminated
May 23
Waxing Crescent
May 28
First Quarter
Jun 4
Full
Jun 11
Last Quarter
Jun 19
New

Hourly Weather History & Observations

Time (CDT) Temp. Heat Index Dew Point Humidity Pressure Visibility Wind Dir Wind Speed Gust Speed Precip Events Conditions
12:52 AM 72.0 °F - 55.9 °F 57% 29.54 in 9.0 mi SSE 19.6 mph 28.8 mph N/A   Clear
1:52 AM 70.0 °F - 55.9 °F 61% 29.50 in 10.0 mi SSE 20.7 mph 28.8 mph N/A   Clear
2:52 AM 70.0 °F - 54.0 °F 57% 29.47 in 9.0 mi South 19.6 mph 27.6 mph N/A   Clear
3:52 AM 70.0 °F - 54.0 °F 57% 29.45 in 9.0 mi South 23.0 mph 28.8 mph N/A   Clear
4:52 AM 69.1 °F - 54.0 °F 58% 29.42 in 9.0 mi South 20.7 mph 26.5 mph N/A   Clear
5:52 AM 68.0 °F - 54.0 °F 61% 29.41 in 10.0 mi South 16.1 mph - N/A   Clear
6:52 AM 66.9 °F - 54.0 °F 63% 29.40 in 8.0 mi South 17.3 mph 25.3 mph N/A   Clear
7:52 AM 70.0 °F - 55.0 °F 59% 29.41 in 9.0 mi South 17.3 mph 24.2 mph N/A   Clear
8:52 AM 73.9 °F - 55.0 °F 52% 29.42 in 8.0 mi South 18.4 mph 25.3 mph N/A   Clear
9:52 AM 77.0 °F - 53.6 °F 44% 29.49 in 8.0 mi South 26.5 mph 34.5 mph N/A   Clear
10:52 AM 82.9 °F 81.8 °F 53.1 °F 36% 29.37 in 8.0 mi SSW 24.2 mph 34.5 mph N/A   Clear
11:52 AM 86.0 °F - 51.1 °F 30% 29.35 in 9.0 mi South 23.0 mph 28.8 mph N/A   Clear
12:52 PM 90.0 °F - 51.1 °F 26% 29.35 in 10.0 mi South 24.2 mph 31.1 mph N/A   Clear
1:52 PM 93.9 °F - 50.0 °F 22% 29.32 in 10.0 mi South 16.1 mph 27.6 mph N/A   Clear
2:52 PM 98.1 °F - 42.1 °F 15% 29.29 in 10.0 mi SSW 18.4 mph 25.3 mph N/A   Clear
3:52 PM 99.0 °F - 39.9 °F 13% 29.26 in 10.0 mi SW 16.1 mph 26.5 mph N/A   Clear
4:52 PM 97.0 °F - 51.1 °F 21% 29.25 in 8.0 mi South 24.2 mph 32.2 mph N/A   Clear
5:52 PM 91.9 °F - 48.9 °F 23% 29.25 in 8.0 mi South 26.5 mph 34.5 mph N/A   Mostly Cloudy
6:52 PM 93.0 °F - 48.9 °F 22% 29.24 in 9.0 mi South 25.3 mph 31.1 mph N/A   Clear
7:52 PM 90.0 °F - 48.9 °F 24% 29.24 in 9.0 mi SSE 19.6 mph 25.3 mph N/A   Clear
8:52 PM 86.0 °F - 51.1 °F 30% 29.23 in 6.0 mi SE 16.1 mph 24.2 mph N/A   Haze
9:52 PM 82.4 °F 81.4 °F 53.6 °F 37% 29.31 in 9.0 mi SSE 17.3 mph - N/A   Clear
10:52 PM 81.0 °F 80.7 °F 55.0 °F 41% 29.18 in 9.0 mi SSE 25.3 mph 40.3 mph N/A   Clear
11:52 PM 79.0 °F - 55.9 °F 45% 29.17 in 9.0 mi SSE 25.3 mph 36.8 mph N/A   Clear